Theta_e
346 346 347 346 344 344 344 343 341 341 340 339 339 339 337 337 337 336 334 330 330 332
346 347 345 342 342 341 342 340 339 337 336 336 336 336 335 332 332 333 332 332 331 331
341 340 337 337 335 335 335 336 335 333 332 332 330 330 329 328 327 325 324 325 322 322
336 335 335 334 334 334 332 331 331 331 329 323 321 319 316 314 314 314 314 315 316 315
334 330 326 323 322 322 320 320 319 319 317 315 316 310 308 307 307 307 307 308 310 312
325 324 321 320 318 317 314 312 312 312 311 310 307 306 305 305 304 303 303 305 306 307
320 317 315 313 313 312 312 310 310 310 306 303 302 302 302 303 301 301 302 303 305 308
314 314 313 313 312 311 310 309 309 309 302 301 300 300 298 298 299 299 300 302 308 308
314 313 312 311 309 308 307 306 305 304 300 297 299 298 300 299 297 301 304 304 304 306
312 311 308 308 307 305 303 303 302 299 297 295 295 296 296 300 300 302 302 303 304 305
307 307 306 305 303 303 302 302 301 300 297 295 295 296 295 297 296 299 300 300 302 299
305 304 304 303 302 302 303 301 299 299 298 294 292 295 295 295 296 296 297 298 301 299
304 303 303 303 301 300 301 300 300 299 298 298 291 294 294 295 294 291 294 299 298 298
305 304 303 300 300 299 299 299 301 298 297 296 293 292 294 295 292 291 293 297 297 299
Wind_Speed
8 5 7 5 5 4 4 5 7 7 7 6 6 6 5 3 3 3 3 4 3 2
8 10 9 10 9 8 10 8 9 8 6 6 6 7 5 4 5 4 4 4 5 3
13 13 12 11 11 11 10 10 9 7 7 7 7 6 7 4 5 6 5 4 6 5
14 14 12 11 10 10 9 8 8 6 8 7 7 7 8 8 9 9 7 7 6 7
15 14 13 13 11 10 10 8 9 10 10 11 11 11 10 9 8 8 8 7 7 6
14 14 12 12 11 11 11 11 11 11 12 12 11 10 9 8 7 7 7 7 7 7
14 13 12 12 12 11 10 11 10 10 12 12 11 10 9 7 7 7 6 7 7 6
12 12 13 12 12 12 11 9 9 13 11 10 10 8 6 6 6 6 6 6 5 7
13 12 12 11 11 10 9 9 8 12 11 10 8 10 11 8 4 5 5 5 4 4
11 12 11 10 10 8 8 7 10 10 11 9 7 11 11 12 5 3 5 5 4 7
13 12 10 9 7 7 6 10 9 9 8 9 7 12 13 11 6 6 7 6 6 8
11 10 8 8 6 6 11 10 9 8 8 8 6 11 13 9 7 7 6 8 9 8
9 8 9 9 9 6 9 8 7 6 7 9 6 9 14 11 6 6 5 4 5 10
10 11 9 8 6 6 6 7 5 6 6 6 7 7 10 9 4 3 4 5 5 4
Wind_Direction
141 132 136 127 132 133 126 103 95 94 89 82 83 84 74 91 82 48 40 13 358 333
122 115 108 102 99 102 102 100 95 98 94 89 84 69 67 49 38 42 25 24 29 9
104 101 106 106 102 102 103 104 100 102 103 85 66 57 56 41 22 39 21 23 32 29
108 105 107 101 105 110 108 109 116 107 92 90 79 60 55 53 39 38 24 16 20 17
108 103 102 98 98 98 97 88 85 79 77 64 56 54 55 54 41 32 16 7 8 353
109 105 101 100 95 89 85 76 69 73 67 72 62 57 50 45 38 23 14 352 339 325
96 99 97 92 84 81 81 76 67 71 80 70 63 51 40 32 24 9 346 332 333 14
99 95 92 87 84 74 69 71 73 78 82 77 63 45 32 17 5 348 333 337 71 61
100 96 89 86 82 78 72 67 70 86 84 71 58 25 22 19 360 351 29 38 82 112
108 99 92 87 85 81 83 89 78 90 86 75 57 30 13 9 22 352 19 23 5 54
97 95 92 89 90 99 99 86 95 95 93 78 54 33 13 10 4 20 10 16 63 76
87 93 92 96 94 79 91 82 82 90 95 85 49 36 26 26 25 24 29 53 62 65
91 93 86 79 79 77 86 99 93 94 101 108 78 46 40 33 30 14 2 80 76 59
87 86 85 81 81 85 86 93 115 112 102 103 93 59 44 38 38 18 354 16 27 6